Date Time,Air Temp,Sky Temp,Clarity,Light Level,Rain Sensor,Readings
2015-11-24 00:00:05,15.2,1.8,13.5,0.2,2.3,110
2015-11-24 00:05:05,15.3,2.0,13.3,0.2,2.3,111
2015-11-24 00:10:05,15.4,2.0,13.4,0.2,2.7,111
2015-11-24 00:15:05,15.1,1.8,13.3,0.2,5.3,111
2015-11-24 00:20:05,15.2,1.0,14.2,0.2,6.3,112
2015-11-24 00:25:05,15.0,1.5,13.5,0.2,7.0,111
2015-11-24 00:30:05,14.9,2.3,12.6,0.2,7.6,112
2015-11-24 00:35:05,14.8,3.9,10.9,0.2,10.6,111
2015-11-24 00:40:05,14.7,3.1,11.6,0.1,9.4,111
2015-11-24 00:45:05,14.7,5.3,9.4,0.4,6.1,112
2015-11-24 00:50:05,14.7,4.1,10.6,0.3,4.8,111
2015-11-24 00:55:05,14.6,1.6,13.0,0.2,5.1,111
2015-11-24 01:00:05,14.7,1.7,13.0,0.2,3.7,111
2015-11-24 01:05:05,14.7,3.0,11.7,0.2,2.9,112
2015-11-24 01:10:05,14.8,3.7,11.0,0.2,3.6,111
2015-11-24 01:15:05,14.9,3.4,11.5,0.1,5.1,112
2015-11-24 01:20:05,15.0,3.7,11.3,0.0,3.3,111
2015-11-24 01:25:05,15.1,3.5,11.5,0.0,4.1,112
2015-11-24 01:30:05,15.1,2.7,12.4,0.0,7.7,111
2015-11-24 01:35:05,15.2,4.8,10.5,0.0,18.7,111
2015-11-24 01:40:05,15.2,8.0,7.3,0.0,27.0,111
2015-11-24 01:45:05,15.2,8.2,7.0,0.0,28.1,112
2015-11-24 01:50:05,15.2,7.6,7.6,0.0,24.7,111
2015-11-24 01:55:05,15.3,7.1,8.2,0.0,26.2,112
2015-11-24 02:00:05,15.2,7.3,8.0,0.0,21.9,111
2015-11-24 02:05:05,15.5,7.5,8.0,0.0,14.8,112
2015-11-24 02:10:05,15.7,7.5,8.2,0.0,15.7,111
2015-11-24 02:15:05,15.8,7.4,8.5,0.1,14.7,112
2015-11-24 02:20:05,15.9,8.1,7.8,0.1,7.3,111
2015-11-24 02:25:05,15.8,8.5,7.3,0.1,6.3,111
2015-11-24 02:30:05,15.8,6.6,9.2,0.1,10.3,112
2015-11-24 02:35:05,15.8,8.4,7.5,0.0,12.5,111
2015-11-24 02:40:05,15.9,8.9,7.0,0.0,13.9,112
2015-11-24 02:45:05,15.9,9.0,6.9,0.0,15.7,111
2015-11-24 02:50:05,15.9,9.1,6.8,0.0,24.5,111
2015-11-24 02:55:05,15.7,8.4,7.3,0.0,27.7,112
2015-11-24 03:00:05,15.4,8.3,7.1,0.0,31.6,112
2015-11-24 03:05:05,15.3,8.2,7.1,0.0,23.5,111
2015-11-24 03:10:05,15.2,8.2,7.0,0.0,21.9,112
2015-11-24 03:15:05,15.3,6.9,8.4,0.0,25.2,111
2015-11-24 03:20:05,15.3,6.9,8.4,0.0,19.2,112
2015-11-24 03:25:05,15.5,7.0,8.6,0.0,18.4,111
2015-11-24 03:30:05,15.7,7.4,8.3,0.0,18.2,112
2015-11-24 03:35:05,15.6,7.3,8.2,0.0,21.0,111
2015-11-24 03:40:05,15.6,7.4,8.2,0.0,18.0,111
2015-11-24 03:45:05,15.5,6.8,8.7,0.0,18.0,112
2015-11-24 03:50:05,15.5,7.7,7.8,0.0,22.5,111
2015-11-24 03:55:05,15.6,8.2,7.4,0.0,21.6,112
2015-11-24 04:00:05,15.4,7.4,8.0,0.0,23.8,111
2015-11-24 04:05:05,15.4,7.8,7.6,0.0,21.8,112
2015-11-24 04:10:05,15.7,8.6,7.1,0.0,18.8,111
2015-11-24 04:15:05,15.8,8.6,7.2,0.0,23.8,111
2015-11-24 04:20:05,15.6,8.0,7.6,0.0,27.7,112
2015-11-24 04:25:05,15.5,7.7,7.8,0.0,26.0,111
2015-11-24 04:30:05,15.8,9.2,6.6,0.0,17.4,111
2015-11-24 04:35:05,16.1,7.9,8.2,0.0,20.5,111
2015-11-24 04:40:05,15.9,7.8,8.1,0.0,22.8,112
2015-11-24 04:45:05,15.7,7.7,8.0,0.0,22.7,111
2015-11-24 04:50:05,15.8,7.2,8.6,0.0,18.6,112
2015-11-24 04:55:05,15.9,6.5,9.4,0.0,22.1,111
2015-11-24 05:00:05,15.8,7.1,8.7,0.0,19.7,111
2015-11-24 05:05:05,15.9,6.6,9.3,0.0,22.1,112
2015-11-24 05:10:05,15.9,6.2,9.7,0.0,18.1,111
2015-11-24 05:15:05,15.6,7.3,8.3,0.0,22.5,111
2015-11-24 05:20:05,15.9,7.5,8.4,0.0,29.0,111
2015-11-24 05:25:05,15.9,7.9,8.0,0.0,25.0,112
2015-11-24 05:30:05,16.0,6.8,9.2,0.0,19.7,112
2015-11-24 05:35:05,16.0,7.1,8.8,0.0,24.2,111
2015-11-24 05:40:05,16.1,7.8,8.3,0.0,13.7,112
2015-11-24 05:45:05,16.6,7.5,9.1,0.0,12.1,111
2015-11-24 05:50:05,16.3,7.0,9.4,0.0,30.9,111
2015-11-24 05:55:05,16.0,7.4,8.6,0.0,30.8,112
2015-11-24 06:00:05,15.9,7.5,8.4,0.0,30.0,112
2015-11-24 06:05:02,16.0,7.8,8.2,0.0,25.0,75
2015-11-24 06:10:02,16.1,8.1,8.0,0.0,26.4,112
2015-11-24 06:15:02,16.2,7.9,8.3,0.0,30.6,112
2015-11-24 06:20:02,16.3,7.5,8.8,0.0,23.7,111
2015-11-24 06:25:02,16.7,7.8,8.9,0.0,8.8,112
2015-11-24 06:30:02,17.1,6.9,10.2,0.0,13.9,111
2015-11-24 06:35:02,17.0,7.0,10.0,0.0,28.4,112
2015-11-24 06:40:02,16.9,7.1,9.8,0.0,29.2,111
2015-11-24 06:45:02,17.0,7.4,9.6,0.2,24.0,111
2015-11-24 06:50:02,17.1,7.3,9.7,0.8,13.3,111
2015-11-24 06:55:02,17.3,7.8,9.4,1.8,4.9,112
2015-11-24 07:00:02,17.4,8.1,9.3,3.3,3.1,111
2015-11-24 07:05:02,17.2,8.1,9.1,5.7,2.5,112
2015-11-24 07:10:02,17.2,6.4,10.8,11.0,2.3,111
2015-11-24 07:15:02,17.2,6.2,11.0,14.2,2.3,112
2015-11-24 07:20:02,17.3,6.1,11.2,18.7,2.3,111
2015-11-24 07:25:02,17.4,5.8,11.6,21.3,2.4,112
2015-11-24 07:30:02,17.4,5.8,11.5,24.4,2.5,112
2015-11-24 07:35:02,17.3,5.2,12.2,28.2,2.4,111
2015-11-24 07:40:02,17.3,5.4,11.8,28.7,2.6,112
2015-11-24 07:45:02,17.2,5.8,11.3,29.2,2.6,111
2015-11-24 07:50:02,17.2,4.4,12.8,29.6,4.1,113
2015-11-24 07:55:02,17.2,5.6,11.5,30.4,2.3,111
2015-11-24 08:00:02,17.1,5.5,11.6,30.5,2.5,112
2015-11-24 08:05:02,17.1,5.4,11.7,31.0,2.3,112
2015-11-24 08:10:02,17.1,5.4,11.7,31.1,2.6,111
2015-11-24 08:15:02,17.1,4.8,12.3,31.3,7.0,112
2015-11-24 08:20:02,17.1,0.4,16.7,32.1,2.3,112
2015-11-24 08:25:02,17.1,4.8,12.3,32.0,2.1,111
2015-11-24 08:30:02,17.1,4.1,12.9,32.1,2.1,112
2015-11-24 08:35:02,17.1,2.6,14.5,32.2,2.1,111
2015-11-24 08:40:02,17.3,1.5,15.7,32.3,2.1,112
2015-11-24 08:45:02,17.3,2.5,14.8,32.3,2.2,111
2015-11-24 08:50:02,18.5,-2.3,20.7,32.4,2.4,112
2015-11-24 08:55:02,20.7,-2.7,23.5,32.4,2.4,111
2015-11-24 09:00:02,21.6,-2.4,24.0,32.4,2.3,112
2015-11-24 09:05:02,21.8,-3.2,24.9,32.4,2.3,112
2015-11-24 09:10:02,21.7,-3.8,25.4,32.4,2.3,112
2015-11-24 09:15:02,21.6,-4.6,26.1,32.4,2.3,112
2015-11-24 09:20:02,21.5,-5.0,26.5,32.4,2.3,111
2015-11-24 09:25:02,21.5,-4.4,25.9,32.4,2.3,112
2015-11-24 09:30:02,21.4,-5.4,26.8,32.3,2.3,111
2015-11-24 09:35:02,21.3,-6.0,27.3,32.3,2.3,112
2015-11-24 09:40:02,21.3,-5.9,27.2,32.4,2.3,112
2015-11-24 09:45:02,21.2,-7.0,28.1,32.4,2.3,111
2015-11-24 09:50:02,21.0,-6.4,27.5,32.4,2.3,112
2015-11-24 09:55:02,21.0,-6.8,27.8,32.4,2.3,112
2015-11-24 10:00:02,21.0,-7.6,28.5,32.4,2.3,112
2015-11-24 10:05:02,21.0,-6.8,27.8,32.4,2.3,111
2015-11-24 10:10:02,21.1,-5.2,26.3,32.5,2.3,111
2015-11-24 10:15:02,21.1,-4.1,25.2,32.4,2.3,112
2015-11-24 10:20:02,21.0,-3.0,24.0,32.4,2.3,112
2015-11-24 10:25:02,20.9,-1.4,22.3,32.3,2.3,112
2015-11-24 10:30:03,20.9,-0.8,21.7,32.3,2.3,112
2015-11-24 10:35:03,20.9,-1.0,22.0,32.3,2.3,112
2015-11-24 10:40:03,21.0,-0.6,21.6,32.3,2.3,112
2015-11-24 10:45:03,20.9,-0.9,21.8,32.3,2.3,111
2015-11-24 10:50:03,20.7,-1.1,21.7,32.3,2.3,112
2015-11-24 10:55:03,20.6,-1.1,21.7,32.3,2.3,112
2015-11-24 11:00:03,20.6,-1.1,21.7,32.3,2.3,111
2015-11-24 11:05:03,20.5,-1.2,21.7,32.2,2.3,112
2015-11-24 11:10:03,20.4,-0.8,21.2,32.2,2.3,112
2015-11-24 11:15:03,20.3,-1.0,21.4,32.2,2.3,111
2015-11-24 11:20:03,20.3,-0.7,21.0,32.2,2.3,112
2015-11-24 11:25:03,19.5,0.1,19.4,32.2,2.4,111
2015-11-24 11:30:03,17.0,0.1,16.9,32.2,2.3,112
2015-11-24 11:35:03,16.2,0.3,15.9,32.2,2.5,111
2015-11-24 11:40:03,15.9,0.4,15.5,32.2,2.3,111
2015-11-24 11:45:03,15.7,0.1,15.6,32.3,3.1,112
2015-11-24 11:50:03,15.6,-0.5,16.2,32.3,7.8,112
2015-11-24 11:55:03,15.5,-0.4,15.8,32.4,10.7,112
2015-11-24 12:00:03,15.3,0.5,14.8,32.3,8.0,111
2015-11-24 12:05:03,14.9,2.2,12.7,32.1,11.6,111
2015-11-24 12:10:03,15.0,3.8,11.2,32.1,14.2,111
2015-11-24 12:15:03,14.9,3.6,11.3,32.2,8.5,112
2015-11-24 12:20:03,14.7,2.1,12.6,32.2,9.6,111
2015-11-24 12:25:03,14.7,1.5,13.1,32.1,6.8,111
2015-11-24 12:30:03,14.6,3.0,11.7,32.1,10.0,111
2015-11-24 12:35:03,14.8,3.7,11.1,32.1,10.6,111
2015-11-24 12:40:03,14.8,3.4,11.4,32.1,11.4,112
2015-11-24 12:45:03,14.8,4.3,10.4,32.1,10.9,111
2015-11-24 12:50:03,14.7,4.5,10.2,32.1,10.4,112
2015-11-24 12:55:03,14.7,4.6,10.1,32.1,12.3,111
2015-11-24 13:00:03,14.7,4.9,9.8,32.0,11.4,112
2015-11-24 13:05:03,14.6,4.6,10.1,32.0,6.8,112
2015-11-24 13:10:03,14.6,4.3,10.3,32.0,8.6,112
2015-11-24 13:15:03,14.7,4.7,9.9,32.0,11.6,111
2015-11-24 13:20:03,14.7,4.4,10.3,32.1,13.8,112
2015-11-24 13:25:03,14.7,5.6,9.1,32.1,11.2,112
2015-11-24 13:30:03,14.6,5.9,8.7,32.2,4.8,111
2015-11-24 13:35:03,14.6,3.5,11.1,32.2,4.1,112
2015-11-24 13:40:03,14.5,-0.0,14.5,32.2,4.2,111
2015-11-24 13:45:03,14.5,-0.5,15.0,32.2,3.3,112
2015-11-24 13:50:03,14.5,-0.8,15.3,32.2,3.4,111
2015-11-24 13:55:03,14.6,-0.5,15.0,32.2,2.7,112
2015-11-24 14:00:03,14.6,-1.4,16.0,32.2,2.6,111
2015-11-24 14:05:03,14.7,-0.9,15.6,32.2,2.4,112
2015-11-24 14:10:03,14.8,-1.2,16.0,32.3,2.4,112
2015-11-24 14:15:03,15.0,-0.8,15.8,32.3,2.3,111
2015-11-24 14:20:03,15.1,-0.3,15.4,32.3,2.3,112
2015-11-24 14:25:03,15.2,0.5,14.6,32.2,2.3,111
2015-11-24 14:30:03,15.2,1.9,13.4,32.0,2.3,112
2015-11-24 14:35:03,15.3,2.4,12.9,31.8,2.3,111
2015-11-24 14:40:03,15.3,2.3,12.9,31.8,2.3,111
2015-11-24 14:45:03,15.3,1.8,13.5,32.1,2.3,111
2015-11-24 14:50:03,15.3,1.4,13.9,32.1,2.3,111
2015-11-24 14:55:03,15.4,-1.0,16.4,32.3,2.3,112
2015-11-24 15:00:03,15.5,0.8,14.6,32.2,2.3,111
2015-11-24 15:05:03,15.5,0.3,15.2,32.2,2.3,112
2015-11-24 15:10:03,15.6,2.6,13.0,31.9,2.3,111
2015-11-24 15:15:03,15.6,3.4,12.2,31.4,2.4,111
2015-11-24 15:20:03,15.6,3.6,12.0,31.2,2.4,112
2015-11-24 15:25:03,15.6,3.8,11.9,30.5,2.5,111
2015-11-24 15:30:03,15.6,3.3,12.3,29.8,3.4,111
2015-11-24 15:35:03,15.5,2.3,13.2,28.9,4.5,111
2015-11-24 15:40:03,15.4,3.3,12.1,30.2,2.8,112
2015-11-24 15:45:03,15.4,3.2,12.2,30.7,2.6,111
2015-11-24 15:50:03,15.4,3.1,12.3,30.3,2.4,111
2015-11-24 15:55:03,15.4,2.3,13.1,29.4,2.4,112
2015-11-24 16:00:03,15.4,2.6,12.8,28.3,2.4,110
2015-11-24 16:05:03,15.4,2.7,12.7,27.2,2.4,111
2015-11-24 16:10:03,15.4,2.7,12.7,25.5,2.4,112
2015-11-24 16:15:03,15.4,2.8,12.6,23.8,2.4,112
2015-11-24 16:20:03,15.5,2.1,13.4,22.2,2.4,111
2015-11-24 16:25:03,15.5,2.7,12.8,18.9,2.4,111
2015-11-24 16:30:03,15.6,3.4,12.1,11.3,2.4,111
2015-11-24 16:35:03,15.6,3.6,12.0,6.5,2.4,111
2015-11-24 16:40:03,15.6,3.5,12.1,4.0,2.4,112
2015-11-24 16:45:03,15.6,3.5,12.2,2.9,2.4,111
2015-11-24 16:50:03,15.6,3.3,12.3,1.7,2.4,111
2015-11-24 16:55:03,15.6,1.1,14.5,1.2,2.3,112
2015-11-24 17:00:03,15.6,1.9,13.7,0.6,2.3,111
2015-11-24 17:05:03,15.6,-1.8,17.4,0.4,2.4,112
2015-11-24 17:10:03,17.0,-4.8,21.9,0.4,2.5,111
2015-11-24 17:15:03,18.7,-7.4,26.1,0.3,2.5,112
2015-11-24 17:20:03,19.4,-7.9,27.3,0.2,2.3,111
2015-11-24 17:25:03,19.6,-11.6,31.1,0.1,2.3,112
2015-11-24 17:30:03,19.6,-13.6,33.2,0.1,2.4,111
2015-11-24 17:35:03,19.5,-13.8,33.3,0.1,2.3,112
2015-11-24 17:40:03,19.5,-14.0,33.4,0.1,2.3,111
2015-11-24 17:45:03,19.4,-10.8,30.2,0.1,2.3,111
2015-11-24 17:50:03,19.5,-8.3,27.7,0.1,2.3,112
2015-11-24 17:55:03,19.6,-5.4,25.0,0.2,2.3,112
2015-11-24 18:00:03,19.6,-3.7,23.3,0.2,2.3,111
2015-11-24 18:05:03,19.7,-4.5,24.2,0.2,2.3,112
2015-11-24 18:10:03,19.6,-9.6,29.2,0.2,2.3,112
2015-11-24 18:15:03,19.3,-13.6,32.9,0.1,2.3,111
2015-11-24 18:20:03,19.2,-12.3,31.4,0.1,2.3,112
2015-11-24 18:25:03,19.1,-9.4,28.5,0.1,2.3,111
2015-11-24 18:30:03,19.1,-9.4,28.5,0.2,2.3,112
2015-11-24 18:35:03,19.1,-13.0,32.0,0.1,2.3,111
2015-11-24 18:40:03,19.0,-14.7,33.7,0.1,2.3,112
2015-11-24 18:45:03,18.9,-14.7,33.6,0.1,2.3,111
2015-11-24 18:50:03,18.4,-14.4,32.8,0.1,2.3,112
2015-11-24 18:55:03,18.5,-12.1,30.6,0.1,2.3,111
2015-11-24 19:00:03,18.6,-12.1,30.7,0.1,2.3,112
2015-11-24 19:05:03,18.7,-12.1,30.8,0.1,2.3,111
2015-11-24 19:10:03,18.8,-9.7,28.5,0.2,2.3,112
2015-11-24 19:15:03,18.8,-9.5,28.3,0.2,2.3,112
2015-11-24 19:20:03,18.9,-8.8,27.7,0.2,2.3,112
2015-11-24 19:25:03,18.8,-8.4,27.2,0.2,2.3,112
2015-11-24 19:30:03,18.8,-4.5,23.2,0.3,2.3,111
2015-11-24 19:35:03,18.8,-3.5,22.3,0.4,2.3,112
2015-11-24 19:40:03,18.9,-3.3,22.2,0.4,2.3,112
2015-11-24 19:45:03,18.9,-12.5,31.4,0.2,2.3,111
2015-11-24 19:50:03,18.8,-15.1,33.9,0.2,2.3,112
2015-11-24 19:55:03,18.6,-15.1,33.7,0.2,2.3,112
2015-11-24 20:00:03,18.6,-15.1,33.7,0.2,2.3,111
2015-11-24 20:05:03,18.7,-15.1,33.8,0.2,2.3,112
2015-11-24 20:10:03,18.7,-15.0,33.7,0.2,2.3,112
2015-11-24 20:15:03,18.8,-14.9,33.7,0.3,2.4,112
2015-11-24 20:20:03,18.8,-15.1,33.9,0.3,2.3,112
2015-11-24 20:25:03,18.8,-15.1,33.9,0.3,2.3,111
2015-11-24 20:30:03,18.8,-15.2,34.0,0.3,2.3,111
2015-11-24 20:35:03,18.7,-15.1,33.8,0.4,2.4,112
2015-11-24 20:40:03,18.6,-14.1,32.7,0.4,2.5,112
2015-11-24 20:45:03,18.7,-13.6,32.4,0.4,2.4,111
2015-11-24 20:50:03,18.8,-13.4,32.1,0.5,2.3,112
2015-11-24 20:55:03,18.8,-14.9,33.7,0.5,2.3,112
2015-11-24 21:00:03,18.8,-15.2,34.1,0.5,2.3,111
2015-11-24 21:05:03,18.8,-13.4,32.3,0.6,2.3,112
2015-11-24 21:10:03,18.8,-5.7,24.5,0.6,2.3,112
2015-11-24 21:15:03,18.9,-8.0,26.9,0.6,2.4,111
2015-11-24 21:20:03,19.0,-9.7,28.7,0.6,2.4,112
2015-11-24 21:25:03,18.9,-13.9,32.8,0.6,2.4,111
2015-11-24 21:30:03,18.9,-15.0,33.9,0.7,2.4,112
2015-11-24 21:35:03,18.8,-15.2,34.0,0.7,2.5,112
2015-11-24 21:40:03,18.8,-15.3,34.1,0.7,2.6,112
2015-11-24 21:45:03,18.7,-14.7,33.4,0.8,2.6,111
2015-11-24 21:50:03,18.4,-13.4,31.8,0.8,2.5,112
2015-11-24 21:55:03,18.8,-13.1,31.8,0.8,2.4,111
2015-11-24 22:00:03,18.8,-9.4,28.2,1.0,2.4,112
2015-11-24 22:05:03,18.9,-6.1,25.0,0.9,2.3,112
2015-11-24 22:10:03,19.0,-3.9,22.9,0.7,2.3,112
2015-11-24 22:15:03,19.2,-2.4,21.6,0.6,2.3,111
2015-11-24 22:20:03,19.3,-2.3,21.6,0.5,2.3,112
2015-11-24 22:25:03,19.3,-2.6,21.9,0.6,2.3,112
2015-11-24 22:30:03,19.3,-3.9,23.2,0.6,2.3,111
2015-11-24 22:35:03,19.3,-4.9,24.2,1.0,2.3,112
2015-11-24 22:40:03,19.4,-5.2,24.6,0.9,2.3,112
2015-11-24 22:45:03,19.4,-5.9,25.3,1.0,2.3,111
2015-11-24 22:50:03,19.5,-2.1,21.6,0.9,4.0,112
2015-11-24 22:55:03,19.4,-2.3,21.6,0.6,4.6,112
2015-11-24 23:00:03,19.1,-3.5,22.6,0.9,3.1,112
2015-11-24 23:05:03,17.6,-3.1,20.7,0.6,2.5,112
2015-11-24 23:10:03,17.7,-0.0,17.8,0.8,2.5,111
2015-11-24 23:15:03,16.0,1.4,14.6,0.5,13.4,111
2015-11-24 23:20:03,15.8,4.5,11.3,0.6,19.8,111
2015-11-24 23:25:03,15.3,5.4,10.0,0.7,3.9,112
2015-11-24 23:30:03,15.0,3.7,11.3,0.7,3.5,112
2015-11-24 23:35:03,14.6,-2.7,17.4,0.8,2.5,112
2015-11-24 23:40:03,15.2,-5.6,20.8,0.8,3.3,112
2015-11-24 23:45:03,17.5,-5.9,23.4,1.1,2.4,111
2015-11-24 23:50:03,18.5,-6.6,25.1,1.1,2.4,112
2015-11-24 23:55:03,18.8,-9.1,27.8,1.0,2.3,112
